| time (UTC) | temp C | wind direction | speed KPH | gust KPH | rain 1hr cm | rain 24hr cm | rain mn cm | humidity % | barometer mb |
| 20260507120621 | 8 | 0 | 0.0 | 0.0 | 0.00 | 0.03 | 0.00 | 1006.1 | |
| 20260507120121 | 8 | 0 | 0.0 | 0.0 | 0.00 | 0.03 | 0.00 | 1006.1 | |
| 20260507113620 | 8 | 0 | 0.0 | 3.2 | 0.00 | 0.03 | 0.00 | 1006.1 | |
| 20260507092621 | 8 | 58 | 0.0 | 4.8 | 0.00 | 0.03 | 0.00 | 1004.4 | |
| 20260507091620 | 8 | 343 | 0.0 | 4.8 | 0.00 | 0.03 | 0.00 | 1004.1 | |
| 20260507091120 | 8 | 13 | 1.6 | 8.0 | 0.00 | 0.03 | 0.00 | 1004.1 | |
| 20260507090619 | 8 | 333 | 0.0 | 8.0 | 0.00 | 0.03 | 0.00 | 1004.4 | |
| 20260507090122 | 8 | 31 | 0.0 | 0.0 | 0.00 | 0.03 | 0.00 | 1004.4 | |
| 20260507085620 | 8 | 31 | 0.0 | 0.0 | 0.00 | 0.03 | 0.00 | 1004.4 | |
| 20260507084619 | 8 | 31 | 0.0 | 4.8 | 0.00 | 0.03 | 0.00 | 1004.4 | |
| 20260507084124 | 8 | 31 | 0.0 | 4.8 | 0.00 | 0.03 | 0.00 | 1004.4 | |
| 20260507083621 | 8 | 63 | 0.0 | 0.0 | 0.00 | 0.03 | 0.00 | 1004.4 | |
| 20260507080621 | 8 | 63 | 0.0 | 0.0 | 0.00 | 0.03 | 0.00 | 1004.1 | |
| 20260507071121 | 8 | 63 | 0.0 | 0.0 | 0.00 | 0.03 | 0.00 | 1003.4 | |
| 20260507070620 | 8 | 63 | 0.0 | 0.0 | 0.00 | 0.03 | 0.00 | 1003.8 | |
| 20260507070120 | 8 | 63 | 0.0 | 0.0 | 0.00 | 0.03 | 0.00 | 1004.1 | |
| 20260507065619 | 8 | 63 | 0.0 | 4.8 | 0.00 | 0.03 | 0.00 | 1003.8 | |
| 20260507031619 | 10 | 203 | 12.9 | 32.2 | 0.00 | 0.00 | 0.03 | 1006.1 | |
| 20260507015619 | 10 | 214 | 11.3 | 27.4 | 0.03 | 0.00 | 0.03 | 1008.5 | |
| 20260507015121 | 10 | 200 | 8.0 | 20.9 | 0.03 | 0.00 | 0.03 | 1008.2 | |
| 20260507014620 | 10 | 240 | 6.4 | 20.9 | 0.03 | 0.00 | 0.03 | 1008.2 | |
| 20260507013619 | 10 | 69 | 9.7 | 25.7 | 0.00 | 0.00 | 0.00 | 1008.5 | |
| 20260507012621 | 10 | 219 | 3.2 | 22.5 | 0.00 | 0.00 | 0.00 | 1008.8 |